Benton Harbor, MI

9:47 AM EST on February 12, 2016 (GMT -0500)
Southwest Michigan Regional

Weather History for KBEH - July, 2013

Change the Weather History Date:

Saturday, July 13, 2013

  Actual Average Record
Temperature  
Mean Temperature 70 °F -  
Max Temperature 87 °F 83 °F 96 °F (1974)
Min Temperature 55 °F 59 °F 48 °F (1990)
Cooling Degree Days 4    
Growing Degree Days 20 (Base 50)    
Moisture  
Dew Point 60 °F    
Average Humidity 73    
Maximum Humidity 100    
Minimum Humidity 46    
Precipitation  
Precipitation 0.01 in - - ()
Sea Level Pressure  
Sea Level Pressure 30.15 in    
Wind  
Wind Speed 3 mph (East)    
Max Wind Speed 9 mph    
Max Gust Speed -    
Visibility 8 miles    
Events      
Averages and records for this station are not official NWS values.
T = Trace of Precipitation, MM = Missing Value Source: NWS Daily Summary

Daily Weather History Graph

Daily Weather History Graph

Search for Another Location

Airport or City:

Trip Planner

Search our weather history database for the weather conditions in past years. The results will help you decide how hot, cold, wet, or windy it might be!

Date:

Astronomy

Jul. 13, 2013 Rise Set
Actual Time 6:21 AM EDT 9:21 PM EDT
Civil Twilight 5:48 AM EDT 9:54 PM EDT
Nautical Twilight 5:05 AM EDT 10:37 PM EDT
Astronomical Twilight 4:15 AM EDT 11:26 PM EDT
Moon 11:43 AM EDT (7/13) 11:54 PM EDT (7/13)
Length of Visible Light 16h 06m
Length of Day
14h 59m
Waxing Crescent, 25% of the Moon is Illuminated
Jul 13
Waxing Crescent
Jul 15
First Quarter
Jul 22
Full
Jul 29
Last Quarter
Aug 6
New

Hourly Weather History & Observations

Time (EDT) Temp. Heat Index Dew Point Humidity Pressure Visibility Wind Dir Wind Speed Gust Speed Precip Events Conditions
12:53 AM 61.0 °F - 59.0 °F 93% 30.12 in 4.0 mi Calm Calm - N/A   Clear
1:53 AM 59.0 °F - 57.9 °F 96% 30.13 in 4.0 mi Calm Calm - N/A   Clear
2:53 AM 57.9 °F - 57.0 °F 97% 30.12 in 4.0 mi Calm Calm - N/A   Clear
3:53 AM 57.9 °F - 57.0 °F 97% 30.15 in 4.0 mi Calm Calm - N/A   Clear
4:53 AM 55.9 °F - 55.9 °F 100% 30.14 in 4.0 mi Calm Calm - N/A   Clear
5:53 AM 55.9 °F - 55.0 °F 97% 30.16 in 4.0 mi Calm Calm - 0.01 in   Clear
6:27 AM 55.4 °F - 55.4 °F 100% 30.17 in 2.0 mi Calm Calm - N/A   Clear
6:37 AM 55.4 °F - 53.6 °F 94% 30.17 in 3.0 mi Calm Calm - N/A   Clear
6:53 AM 55.0 °F - 54.0 °F 96% 30.17 in 3.0 mi Calm Calm - N/A   Clear
7:53 AM 63.0 °F - 60.1 °F 90% 30.15 in 8.0 mi Calm Calm - N/A   Clear
8:53 AM 71.1 °F - 61.0 °F 70% 30.17 in 10.0 mi East 4.6 mph - N/A   Clear
9:53 AM 75.0 °F - 61.0 °F 62% 30.18 in 10.0 mi East 4.6 mph - N/A   Clear
10:53 AM 79.0 °F - 60.1 °F 52% 30.17 in 10.0 mi East 4.6 mph - N/A   Clear
11:53 AM 81.0 °F 81.6 °F 60.1 °F 49% 30.16 in 10.0 mi ESE 9.2 mph - N/A   Clear
12:53 PM 82.0 °F 82.4 °F 60.1 °F 47% 30.16 in 10.0 mi ENE 8.1 mph - N/A   Clear
1:53 PM 82.9 °F 83.2 °F 60.1 °F 46% 30.16 in 10.0 mi ENE 8.1 mph - N/A   Partly Cloudy
2:53 PM 84.0 °F 84.5 °F 62.1 °F 47% 30.14 in 10.0 mi ESE 9.2 mph - N/A   Clear
3:53 PM 84.0 °F 84.9 °F 63.0 °F 49% 30.14 in 10.0 mi East 8.1 mph - N/A   Mostly Cloudy
4:53 PM 84.0 °F 85.4 °F 64.0 °F 51% 30.13 in 10.0 mi SE 8.1 mph - N/A   Partly Cloudy
5:53 PM 84.0 °F 84.9 °F 63.0 °F 49% 30.13 in 10.0 mi ESE 8.1 mph - N/A   Partly Cloudy
6:53 PM 82.9 °F 84.6 °F 64.9 °F 54% 30.13 in 10.0 mi ESE 5.8 mph - N/A   Scattered Clouds
7:53 PM 82.9 °F 84.0 °F 63.0 °F 51% 30.12 in 10.0 mi East 9.2 mph - N/A   Clear
8:53 PM 79.0 °F - 64.9 °F 62% 30.13 in 10.0 mi East 5.8 mph - N/A   Clear
9:53 PM 71.1 °F - 64.9 °F 81% 30.14 in 10.0 mi East 3.5 mph - N/A   Clear
10:53 PM 69.1 °F - 64.9 °F 87% 30.16 in 10.0 mi ESE 4.6 mph - N/A   Clear
11:53 PM 68.0 °F - 63.0 °F 84% 30.17 in 10.0 mi East 3.5 mph - N/A   Clear